Other Surface Observations
Issued by NWS Tucson, AZ

Home | Current Version | Previous Version | Text Only | Print | Product List | Glossary On
Versions: 1 2 3 4 5 6 7 8 9 10 11 12 13 14 15 16 17 18 19 20 21 22 23 24 25 26 27 28 29 30 31 32 33 34 35 36 37 38 39 40 41 42 43 44 45 46 47 48 49 50
000
SXUS55 KTWC 280115
OSOTWC

WEATHER ROUNDUP FOR SOUTHEAST ARIZONA
NATIONAL WEATHER SERVICE TUCSON AZ
615 PM MST MON MAR 27 2017

AZZ504>506-514-280215-
LOCATION       SKY/WX    TMP DP  RH WIND       PRES   REMARKS
TUCSON         CLEAR     77  34  21 W16G22    29.78F
DAVIS-MONTHAN  CLEAR     76  35  22 W12G18    29.77F
CHILDRENS PARK N/A      N/A N/A  20 W10               PIMA CO DEQ
ALVERNON/22ND  N/A       79 N/A N/A W11               PIMA CO DEQ
CHERRY/GLENN   N/A       79 N/A N/A W11               PIMA CO DEQ
TANGERINE      N/A       77 N/A N/A W10               PIMA CO DEQ
CONTL RANCH    N/A       80  34  19 SW11              PIMA CO DEQ
GRANT/1ST      N/A       79  33  19 W10               PIMA CO DEQ
CRAYCROFT/22ND N/A       78  32  19 W14               PIMA CO DEQ
GOLFLINKS/KOLB N/A       78  32  19 W12               PIMA CO DEQ
AJO/12TH       N/A       79  33  19 SW11              PIMA CO DEQ
FAIRGROUNDS    N/A       76 N/A N/A SW16              PIMA CO DEQ
SAGUARO        N/A       78  35  21 W10G19            *SABINO CYN
SAN CARLOS     N/A       74  29  19 SW10G17           *SAN CARLOS
GREEN VALLEY   N/A       77  32  19 SW13              PIMA CO DEQ
HORSE CAMP CYN N/A       70  28  21 SW17G29           *ARAVAIPA CYN
RINCON MTNS    NOT AVBL
$$

AZZ509>511-280215-
LOCATION       SKY/WX    TMP DP  RH WIND       PRES   REMARKS
SAFFORD        MOCLDY    73  31  21 NW7       29.75F
STRAY HORSE    N/A       50  28  43 N/A               *
TRAIL CABIN    N/A       59  28  30 W5G15             *N OF GRANVILLE
BLACK HILLS    NOT AVBL
DRY LAKE       N/A       51  29  42 SW7G14            *NATANES MTNS
NOON CREEK     NOT AVBL
COLUMBINE      N/A       41  33  72 SW5G14            *PINALENO MTNS
GUTHRIE        N/A       56  26  31 W13G23            *SW OF GUTHRIE
$$

AZZ502-503-513-280215-
LOCATION       SKY/WX    TMP DP  RH WIND       PRES   REMARKS
NOGALES        PTCLDY    71  33  24 SW13      29.86S
SELLS          N/A       76  34  22 NE12G20           *
SASABE         N/A       74  33  22 SW14G23           *ALTAR VLY
HOPKINS        N/A       60  32  35 W9G18             *SANTA RITA MTNS
CARR CYN       N/A       63  29  27 SW3G12            *W OF HEREFORD
$$

AZZ507-508-512-280215-
LOCATION       SKY/WX    TMP DP  RH WIND       PRES   REMARKS
SIERRA VISTA   CLOUDY    68  33  27 W15       29.89S
DOUGLAS        CLOUDY    71  23  16 W20G29    29.84R
EMPIRE MTNS    NOT AVBL
MULESHOE RANCH N/A       70  29  22 W7G22             *PRESERVE
HEADQUARTERS   NOT AVBL
$$

.............................NOTES.............................
THIS IS AN AUTOMATED COLLECTIVE WITH MINIMAL QUALITY CONTROL.
PIMA CO DEQ SITES HAVE NONSTANDARD WIND SENSOR HEIGHTS.
PIMA CO DEQ SITES DO NOT REPORT WIND GUSTS.
* INDICATES WIND SENSORS LOCATED AT 20 FEET INSTEAD OF 33 FEET.
..............................KEY..............................
SKY/WX - SKY CONDITION/WEATHER
TMP    - TEMPERATURE IN FAHRENHEIT
DP     - DEWPOINT IN FAHRENHEIT
RH     - RELATIVE HUMIDITY IN PERCENT
WIND   - DIRECTION AND SPEED IN MILES PER HOUR (MPH)
VRB    - VARIABLE WIND DIRECTION
PRES   - MEAN SEA LEVEL PRESSURE IN INCHES OF MERCURY
         F - FALLING PRESSURE   R - RISING PRESSURE
         S - STEADY PRESSURE
VSB    - VISIBILITY IN MILES
HX     - HEAT INDEX IN FAHRENHEIT
WCI    - WIND CHILL INDEX IN FAHRENHEIT
N/A    - NOT AVAILABLE
AFB    - AIR FORCE BASE
         DAVIS-MONTHAN IS DAVIS-MONTHAN AIR FORCE BASE
CYN    - CANYON
MTNS   - MOUNTAINS
NCA    - NATIONAL CONSERVATION AREA
NR     - NEAR
VLY    - VALLEY
CONTL  - CONTINENTAL
PIMA CO DEQ - PIMA COUNTY DEPT OF ENVIRONMENTAL QUALITY



USA.gov is the U.S. government's official web portal to all federal, state and local government web resources and services.